RH
72 70 65 66 61 58 64 63 66 81 81 79 77 70 68 69 77 76 75 91 89 87 85 84 85 84 81 76 77 78 79 79 79 76 70 69 68 64
69 68 65 65 63 64 65 62 62 67 74 66 74 74 70 68 84 67 70 90 92 90 89 89 91 87 86 84 84 84 84 84 83 79 73 72 71 72
70 67 66 64 65 64 65 64 67 67 66 74 71 73 72 70 72 74 74 70 69 91 92 89 91 90 88 89 89 88 87 87 88 88 82 81 80 80
76 67 66 63 64 63 63 66 64 62 67 72 76 78 76 71 67 74 74 71 71 85 90 91 91 91 89 88 91 91 91 91 91 90 88 86 86 86
82 72 66 66 65 66 64 64 64 60 61 70 80 78 77 75 74 75 74 74 73 86 91 92 92 92 92 90 89 92 94 94 93 91 90 90 90 90
85 72 65 67 63 66 66 65 65 67 66 68 77 83 76 77 76 78 84 79 79 74 81 80 85 92 93 93 92 92 92 93 94 93 93 93 93 91
90 83 68 70 72 67 63 67 68 70 72 71 74 79 81 83 85 78 76 78 77 72 74 74 75 78 79 94 88 96 94 93 93 93 93 93 92 91
91 87 82 86 80 81 78 74 67 71 76 72 70 72 73 74 78 77 79 84 89 80 75 74 71 75 72 74 82 90 97 95 95 94 94 93 92 91
88 88 87 80 78 70 83 83 81 78 71 69 71 68 68 70 76 82 83 80 73 76 78 77 89 78 72 65 86 92 92 93 95 95 94 93 92 92
89 89 88 84 79 74 76 78 73 74 73 67 64 63 61 67 72 74 78 76 74 80 81 82 87 83 74 72 89 91 90 90 92 92 92 92 92 92
92 92 91 92 91 87 80 84 79 76 79 81 76 76 78 81 76 75 84 88 87 84 90 78 88 82 81 78 76 94 92 90 91 92 91 91 92 92
86 89 99 93 98 94 81 80 86 79 78 79 77 84 83 82 88 72 77 85 82 87 87 86 90 85 88 84 77 77 84 92 92 92 91 91 91 78
91 90 87 93 95 96 88 76 79 76 81 78 77 76 78 76 82 74 70 74 81 81 85 79 86 90 84 78 84 78 77 77 83 83 93 91 91 84
93 93 92 93 91 94 96 86 87 86 79 84 85 80 80 82 82 80 76 76 70 69 79 77 97 81 83 84 78 86 86 80 78 78 76 84 93 92
86 90 91 91 90 91 99 96 97 91 86 89 86 85 79 76 78 86 83 81 77 79 83 81 83 83 81 81 80 87 86 89 88 85 85 85 83 86
85 83 83 85 86 87 90 95 96 94 93 91 87 82 80 84 89 89 91 91 94 94 92 82 81 81 89 83 82 92 83 90 89 88 87 88 85 80
83 82 84 84 87 89 88 90 93 96 98 93 92 91 91 88 88 88 89 92 96 94 96 100 91 84 81 81 99 83 82 89 84 87 97 98 89 84
83 89 91 92 93 93 93 93 93 94 95 96 99 93 94 93 92 93 93 93 96 91 90 95 100 100 100 99 95 84 87 85 85 88 98 96 86 83
86 89 91 92 95 94 94 95 95 95 96 96 97 99 100 96 95 98 98 95 95 93 92 91 100 99 99 97 97 98 96 91 98 100 91 92 89 85
86 90 91 91 92 94 94 94 94 94 94 95 96 97 98 100 100 100 100 99 98 99 99 98 100 98 98 96 99 100 97 99 98 94 98 100 99 95
88 88 89 90 90 92 94 94 95 95 95 95 95 96 97 98 99 100 100 100 100 100 100 100 99 93 100 100 100 100 99 97 98 100 100 100 99 99
86 86 87 88 90 92 93 94 94 94 95 95 95 96 96 97 98 98 99 100 100 100 100 100 100 100 100 100 100 100 99 98 96 95 95 97 100 99
84 85 87 87 89 90 91 92 94 95 95 95 96 96 96 96 96 97 97 98 99 100 100 100 99 100 100 100 100 98 98 98 96 97 97 97 96 95
Wind_Speed
18 16 13 9 11 10 10 12 8 9 11 8 5 12 10 8 8 10 10 12 11 10 9 8 13 13 14 13 11 11 10 10 9 9 8 7 5 5
14 18 16 11 11 10 10 10 8 7 7 10 9 7 12 9 8 12 11 9 12 12 11 8 11 14 12 12 13 13 12 11 11 11 11 10 10 9
18 19 18 16 11 10 9 10 9 7 5 4 7 6 14 14 10 11 10 12 10 13 12 11 10 12 12 12 12 12 13 12 12 12 13 12 12 11
18 18 18 13 16 14 11 12 11 10 5 6 9 9 8 15 15 14 10 9 10 12 14 12 12 13 13 12 12 12 12 12 12 12 12 11 10 10
19 18 19 18 17 13 13 12 10 9 7 5 6 6 8 9 12 11 12 12 8 9 14 14 14 14 14 14 13 13 12 12 13 12 12 11 11 11
19 19 20 20 20 18 15 15 12 11 9 8 6 6 9 7 10 11 10 8 9 8 9 10 14 15 15 15 14 14 14 14 13 13 13 12 12 12
17 16 17 19 22 21 14 15 15 13 10 10 8 6 8 7 13 7 10 9 10 9 9 9 10 10 11 13 12 16 16 15 15 15 14 14 14 14
15 17 15 14 16 20 20 21 20 18 15 11 11 11 12 11 11 10 10 9 10 9 10 11 9 10 10 10 15 15 18 18 18 16 16 16 15 15
18 16 13 12 17 16 18 17 18 21 21 17 17 13 13 13 14 13 14 12 12 7 13 11 8 11 10 10 15 18 19 20 19 18 18 17 16 16
15 16 16 15 16 18 16 16 17 17 17 13 15 16 15 14 15 16 16 14 7 5 12 11 8 10 9 10 15 20 22 21 20 20 19 19 18 17
4 13 15 14 15 18 17 18 17 15 13 15 14 14 16 18 17 10 10 11 10 8 9 7 6 8 9 11 10 21 23 22 22 21 21 20 18 18
9 11 9 16 20 25 19 17 17 16 14 13 11 8 13 16 22 17 13 13 9 8 9 9 6 6 5 7 10 10 11 20 22 22 22 21 20 10
7 8 8 19 18 17 26 17 18 15 17 14 14 12 11 13 13 14 14 14 12 9 8 12 8 6 4 2 3 9 10 10 11 13 20 21 22 19
8 6 8 18 16 18 18 26 14 15 11 12 12 13 13 12 12 13 14 14 12 13 12 17 5 12 9 7 7 3 8 9 9 10 10 13 21 21
8 11 15 15 16 13 11 21 17 10 11 11 14 13 13 13 13 13 14 14 14 9 10 17 10 10 10 9 6 6 5 7 9 9 8 9 10 8
11 8 11 13 15 14 13 11 11 12 13 13 12 11 11 11 12 12 12 12 11 10 8 14 15 11 8 9 8 4 7 6 6 8 8 7 7 8
10 8 10 9 10 10 9 10 9 10 8 13 12 11 11 12 12 12 12 12 13 13 11 6 11 11 10 11 5 9 8 6 6 6 5 5 7 9
9 10 9 9 9 8 8 8 8 11 8 8 6 11 12 14 13 12 12 12 13 13 13 10 8 2 2 4 6 10 9 9 7 7 4 6 8 7
10 10 10 9 8 7 7 7 7 8 9 7 7 5 6 10 13 12 12 12 12 13 12 10 10 12 14 15 5 4 11 10 6 6 9 9 11 6
9 8 9 9 8 8 7 7 7 7 7 7 7 7 5 3 3 9 12 13 12 11 11 9 10 13 15 15 10 3 3 8 9 12 6 3 5 12
8 9 8 8 8 8 8 7 8 7 7 7 7 6 7 5 3 3 3 4 13 10 12 13 14 17 4 7 3 2 2 2 4 3 4 5 4 4
7 7 8 8 8 8 8 8 7 7 7 7 7 7 6 5 4 4 2 1 2 1 4 2 2 9 7 13 14 7 5 5 12 17 10 3 5 7
8 8 7 7 7 8 8 8 8 8 7 7 7 7 6 5 5 4 3 2 2 1 1 2 2 3 2 3 6 6 9 7 5 9 11 16 15 18
Wind_Direction
183 184 183 175 177 175 162 169 161 181 202 197 172 200 206 200 177 186 198 197 202 212 222 215 182 182 181 179 185 179 185 181 175 182 192 200 212 213
183 183 183 176 172 172 168 167 165 154 192 199 202 183 193 203 179 197 203 194 207 210 220 211 188 191 190 187 182 183 187 190 191 199 210 214 221 225
190 185 185 176 174 173 173 171 158 145 155 165 200 177 196 198 200 209 204 207 211 216 211 204 200 189 186 190 191 191 194 198 204 209 218 225 228 230
188 182 181 175 178 177 176 178 173 169 142 159 183 189 191 203 206 204 207 211 211 205 208 204 197 195 195 198 198 198 200 202 205 208 215 220 227 230
183 184 180 178 179 178 182 182 177 174 171 147 163 181 196 193 202 210 208 212 213 200 204 204 202 203 199 201 203 203 203 203 208 211 217 222 228 232
185 187 185 185 183 180 183 185 178 175 177 169 165 166 186 185 197 200 205 205 211 209 212 213 211 207 205 206 205 202 205 209 211 214 216 220 227 232
188 186 193 185 187 185 182 187 182 184 182 183 184 173 182 184 203 195 212 200 217 206 210 214 217 214 218 215 219 206 208 211 212 216 217 221 223 227
195 188 189 176 184 180 187 188 191 187 187 189 196 201 194 193 188 196 198 199 212 197 205 223 209 214 216 217 211 205 206 212 215 216 217 221 221 224
191 184 181 188 185 190 191 190 197 201 193 190 197 199 195 190 184 186 198 206 217 180 198 223 193 220 214 220 206 201 206 214 215 215 219 221 219 221
185 184 183 182 188 189 189 199 206 206 204 197 206 196 197 190 188 192 195 203 214 191 189 219 181 219 211 222 201 206 212 216 214 214 219 218 219 220
217 192 189 184 179 182 192 197 205 210 207 209 206 198 187 176 182 179 188 188 210 204 200 211 185 211 209 222 215 208 214 216 217 214 215 218 219 220
3 8 202 190 185 189 200 200 203 206 199 200 219 207 194 185 181 191 185 194 204 204 193 208 168 173 216 215 218 210 213 220 219 218 216 216 215 223
17 1 11 359 353 209 206 207 205 200 200 198 207 207 207 196 196 203 196 199 199 213 175 184 193 191 227 157 228 216 205 212 214 221 224 220 218 211
9 2 350 344 337 323 227 209 191 189 201 199 201 207 209 206 202 198 202 207 214 211 174 191 187 194 205 214 228 177 214 219 213 214 215 216 223 222
8 6 4 2 358 357 260 221 205 200 205 202 211 211 211 207 198 198 202 204 218 208 178 193 196 190 201 216 211 201 177 211 210 216 207 208 210 203
7 9 15 26 28 17 14 345 231 209 208 208 213 211 209 203 197 191 198 199 206 209 200 198 203 190 195 217 200 189 205 206 183 209 208 217 214 213
13 23 21 18 27 13 9 4 357 352 244 215 210 207 207 202 201 195 198 202 211 210 204 192 220 213 215 201 199 216 209 214 207 181 174 222 228 215
27 31 22 18 24 16 8 1 2 356 349 335 316 221 202 200 201 200 199 197 207 212 210 190 189 139 39 258 223 226 223 219 213 201 191 213 239 214
37 24 19 11 8 5 5 4 357 347 338 338 335 341 331 223 194 196 198 202 205 208 210 200 188 202 217 228 195 271 229 215 201 198 211 213 237 240
38 25 17 6 358 358 358 358 354 359 352 347 350 334 332 328 320 204 196 203 207 201 204 199 197 205 211 215 216 152 12 233 221 227 204 80 68 98
15 16 11 7 6 351 357 358 354 353 2 344 352 336 337 325 322 302 314 269 206 197 205 207 206 204 153 92 98 157 8 274 231 179 143 143 169 177
13 13 7 5 2 353 360 348 352 359 357 353 340 342 334 320 343 322 315 143 233 296 242 236 111 166 170 201 217 140 142 95 72 64 52 89 170 200
10 4 1 5 358 354 358 350 352 347 358 342 348 333 330 329 324 7 330 0 296 158 146 116 20 7 78 189 155 134 141 136 128 84 51 62 94 94